sat.trackr.live / text

‹ back to catalog

STARLINK-34905

NORAD 65202 · 2025-176E

PAYLOAD ACTIVE UNKNOWN

§ Identity

Operator
Country
US
Launch date
2025-08-14
Launch site
AFETR
Launch vehicle
Mass (kg)
RCS (m²)

Purposes: comms

External: N2YO · Heavens-Above · Gunter

§ Orbital elements

Epoch: 2026-05-25T01:29:44.351232Z

Period
93.85 min
Inclination
53.1579°
Eccentricity
0.0001244
Mean motion
15.34407080 rev/d
Perigee alt
461.8 km
Apogee alt
463.5 km
Semi-major
6,840.8 km
B*
4.3734e-4
RAAN
157.2646°
Arg perigee
87.8406°
Mean anomaly
272.2739°
Rev number
4,482

§ Raw data

STARLINK-349051 65202U 25176E   26145.06231888  .00014432  00000+0  43734-3 0  99972 65202  53.1579 157.2646 0001244  87.8406 272.2739 15.34407080 44824

JSON: /api/v1/satellites/65202 · /tle

For live sub-satellite position, see the globe view (requires WebGL).

§ Visibility from observer

Set your observer location to see the next 7 days of passes ≥ 10°. The values pass through the URL so the page stays shareable.

No JS? Fill the form by hand. The geolocation button needs JavaScript.